Regional Weather Roundup
Issued by NWS Bismarck, ND

Home | Current Version | Previous Version | Text Only | Print | Product List | Glossary On
Versions: 1 2 3 4 5 6 7 8 9 10 11 12 13 14 15 16 17 18 19 20 21 22 23 24 25 26 27 28 29 30 31 32 33 34 35 36 37 38 39 40 41 42 43 44 45 46 47 48 49 50
000
ASUS43 KBIS 301520
RWRBIS

NWR BROADCAST TEXT
NATIONAL WEATHER SERVICE BISMARCK ND
1000 AM CDT WED JUL 30 2014

NOTE: "FAIR" INDICATES FEW OR NO CLOUDS BELOW 12,000 FEET WITH NO
SIGNIFICANT WEATHER AND/OR OBSTRUCTIONS TO VISIBILITY.


CITY           SKY/WX    TMP DP  RH WIND       PRES   REMARKS
WILLISTON      SUNNY     70  58  65 VRB3      30.20S
MINOT          SUNNY     70  59  68 CALM      30.16S
MINOT AFB      MOSUNNY   70  64  80 VRB5      30.16S
BISMARCK       SUNNY     70  57  63 VRB3      30.18R
DICKINSON      SUNNY     70  58  65 NE5       30.19S
GARRISON         N/A     70  61  73 CALM      30.18S
HETTINGER ARPT SUNNY     68  56  65 N7        30.20R
JAMESTOWN      SUNNY     71  55  56 VRB3      30.16S
CARRINGTON     FAIR      70  61  73 N5        30.18S
CROSBY         FAIR      66  59  77 N3        30.21S
HARVEY         FAIR      72  63  73 CALM      30.17S
HAZEN          FAIR      68  59  73 CALM      30.18S
LINTON         FAIR      72  57  60 E5        30.17S
MANDAN         FAIR      68  55  64 E5        30.19S
RUGBY          FAIR      70  64  83 W3        30.16S
STANLEY        FAIR      70  66  88 NW3       30.19S
TIOGA          FAIR      70  55  60 N9        30.23S
WATFORD CITY   FAIR      68  59  73 N3        30.18S
$$

CITY           SKY/WX    TMP DP  RH WIND       PRES   REMARKS
GRAND FORKS    SUNNY     72  57  59 W5        30.11F
GRAND FORKS AF SUNNY     73  59  62 W8        30.13S
DEVILS LAKE    SUNNY     70  57  64 NW6       30.15S
FARGO          SUNNY     72  56  57 N6        30.13S
CANDO          FAIR      72  61  68 W8        30.16S
CAVALIER       FAIR      73  59  60 NW6       30.11F
GRAFTON        FAIR      72  57  60 W5        30.11F
GWINNER        SUNNY     73  55  53 NW6       30.16S
LANGDON        FAIR      72  57  60 NW7       30.15S
ROLLA          FAIR      72  59  64 N9        30.17F
WALHALLA         N/A     72  59  64 W3          N/A
$$

CITY           SKY/WX    TMP DP  RH WIND       PRES   REMARKS
ABERDEEN       SUNNY     69  55  60 N3        30.16F
MOBRIDGE       MOSUNNY   71  59  65 S6        30.14R
BUFFALO          N/A     71  55  56 N7        30.15R
RAPID CITY     SUNNY     73  56  54 VRB3      30.21S
GLASGOW        SUNNY     72  53  51 SE8       30.18S
SIDNEY         SUNNY     70  59  68 E3        30.21S
WOLF POINT     SUNNY     70  56  61 E5        30.19F
GLENDIVE       SUNNY     72  54  53 CALM      30.22S
MILES CITY     SUNNY     70  52  52 CALM      30.21S
BAKER          SUNNY     71  54  54 NW3       30.23S
$$

CITY           SKY/WX    TMP DP  RH WIND       PRES   REMARKS
BILLINGS       MOSUNNY   68  54  60 SW8       30.25S
GREAT FALLS    SUNNY     78  48  34 S9        30.18S
REGINA         MOSUNNY   70  57  64 S6        30.20S
ESTEVAN        MOSUNNY   70  57  64 N3        30.20S
$$



USA.gov is the U.S. government's official web portal to all federal, state and local government web resources and services.